TimeEST,TemperatureF,Dew PointF,Humidity,Sea Level PressureIn,VisibilityMPH,Wind Direction,Wind SpeedMPH,Gust SpeedMPH,PrecipitationIn,Events,Conditions,WindDirDegrees,DateUTC
12:52 AM,33.1,26.1,75,30.03,10.0,WSW,12.7,-,N/A,,Overcast,250,2013-01-17 05:52:00
1:52 AM,33.1,26.1,75,30.05,10.0,WSW,8.1,-,N/A,,Overcast,240,2013-01-17 06:52:00
2:52 AM,33.1,26.1,75,30.07,10.0,WSW,8.1,-,N/A,,Overcast,250,2013-01-17 07:52:00
3:52 AM,33.1,26.1,75,30.09,10.0,West,6.9,-,N/A,,Overcast,270,2013-01-17 08:52:00
4:52 AM,33.1,27.0,78,30.09,10.0,West,6.9,-,N/A,,Overcast,260,2013-01-17 09:52:00
5:52 AM,32.0,27.0,82,30.11,9.0,West,6.9,-,N/A,,Overcast,260,2013-01-17 10:52:00
6:52 AM,30.9,26.1,82,30.14,7.0,West,5.8,-,N/A,,Clear,280,2013-01-17 11:52:00
7:52 AM,28.0,25.0,88,30.15,7.0,West,5.8,-,N/A,,Clear,270,2013-01-17 12:52:00
8:52 AM,30.0,26.1,85,30.17,5.0,WSW,4.6,-,N/A,,Clear,240,2013-01-17 13:52:00
9:52 AM,30.0,27.0,88,30.21,5.0,SSW,3.5,-,N/A,,Clear,200,2013-01-17 14:52:00
10:52 AM,35.1,25.0,67,30.22,10.0,WNW,9.2,-,N/A,,Clear,290,2013-01-17 15:52:00
11:17 AM,33.8,24.8,70,30.20,10.0,NW,9.2,-,N/A,,Mostly Cloudy,320,2013-01-17 16:17:00
11:52 AM,35.1,24.1,64,30.21,10.0,NW,6.9,-,N/A,,Mostly Cloudy,310,2013-01-17 16:52:00
12:04 PM,35.6,21.2,56,30.18,10.0,North,9.2,-,N/A,,Scattered Clouds,360,2013-01-17 17:04:00
12:52 PM,37.0,21.9,54,30.17,10.0,WNW,8.1,-,N/A,,Clear,290,2013-01-17 17:52:00
1:52 PM,37.9,21.0,51,30.16,10.0,NW,12.7,-,N/A,,Clear,310,2013-01-17 18:52:00
2:52 PM,39.0,21.0,49,30.13,10.0,NW,15.0,-,N/A,,Clear,310,2013-01-17 19:52:00
3:52 PM,39.0,19.0,45,30.14,10.0,WNW,17.3,23.0,N/A,,Partly Cloudy,300,2013-01-17 20:52:00
4:52 PM,35.1,16.0,46,30.17,10.0,WNW,16.1,27.6,N/A,,Clear,290,2013-01-17 21:52:00
5:52 PM,30.9,17.1,57,30.21,10.0,NW,15.0,24.2,N/A,,Clear,310,2013-01-17 22:52:00
6:52 PM,27.0,14.0,58,30.26,10.0,NW,17.3,26.5,N/A,,Clear,320,2013-01-17 23:52:00
7:52 PM,24.1,12.0,60,30.31,10.0,NW,16.1,27.6,N/A,,Clear,310,2013-01-18 00:52:00
8:52 PM,23.0,8.1,53,30.33,10.0,NW,10.4,21.9,N/A,,Clear,310,2013-01-18 01:52:00
9:52 PM,21.0,7.0,55,30.34,10.0,NNW,10.4,-,N/A,,Clear,330,2013-01-18 02:52:00
10:52 PM,19.9,7.0,57,30.35,10.0,NW,8.1,-,N/A,,Clear,320,2013-01-18 03:52:00
11:52 PM,19.0,8.1,62,30.36,10.0,West,4.6,-,N/A,,Scattered Clouds,260,2013-01-18 04:52:00